Monticello, KY

6:10 PM EST on November 20, 2017 (GMT -0500)
Wayne County

Weather History for KEKQ - October, 2012

Change the Weather History Date:

Saturday, October 27, 2012

  Actual Average Record
Temperature  
Mean Temperature 46 °F -  
Max Temperature 47 °F 69 °F 83 °F (1963)
Min Temperature 44 °F 41 °F 22 °F (1961)
Degree Days  
Heating Degree Days 20    
Moisture  
Dew Point 45 °F    
Average Humidity 96    
Maximum Humidity 100    
Minimum Humidity 86    
Precipitation  
Precipitation 0.10 in - - ()
Sea Level Pressure  
Sea Level Pressure 30.08 in    
Wind  
Wind Speed 1 mph (North)    
Max Wind Speed 12 mph    
Max Gust Speed 15 mph    
Averages and records for this station are not official NWS values.
T = Trace of Precipitation, MM = Missing Value Source: NWS Daily Summary

Daily Weather History Graph

Daily Weather History Graph

Search for Another Location

Airport or City:

Trip Planner

Search our weather history database for the weather conditions in past years. The results will help you decide how hot, cold, wet, or windy it might be!

Date:

Astronomy

Oct. 27, 2012 Rise Set
Actual Time 6:58 AM CDT 5:47 PM CDT
Civil Twilight 6:32 AM CDT 6:13 PM CDT
Nautical Twilight 6:01 AM CDT 6:44 PM CDT
Astronomical Twilight 5:31 AM CDT 7:14 PM CDT
Moon 4:31 PM CDT (10/27) 4:55 AM CDT (10/27)
Length of Visible Light 11h 41m
Length of Day
10h 48m
Waxing Gibbous, 96% of the Moon is Illuminated
Oct 27
Waxing Gibbous
Oct 29
Full
Nov 6
Last Quarter
Nov 13
New
Nov 20
First Quarter

Hourly Weather History & Observations

Time (CDT) Temp. Dew Point Humidity Pressure Visibility Wind Dir Wind Speed Gust Speed Precip Events Conditions
12:56 AM 47.8 °F 45.9 °F 93% 30.08 in - Calm Calm - N/A   Overcast
1:56 AM 46.9 °F 46.9 °F 100% 30.07 in - Calm Calm - 0.08 in Rain Rain
2:15 AM 46.4 °F 46.4 °F 100% 30.06 in - Calm Calm - 0.01 in Rain Light Rain
2:56 AM 46.9 °F 46.9 °F 100% 30.05 in - Calm Calm - 0.01 in   Overcast
3:56 AM 46.9 °F 46.9 °F 100% 30.05 in - Calm Calm - 0.00 in   Overcast
4:56 AM 45.9 °F 45.9 °F 100% 30.06 in - Calm Calm - 0.00 in   Overcast
5:21 AM 46.4 °F 46.4 °F 100% 30.05 in - Calm Calm - N/A   Overcast
5:28 AM 46.4 °F 46.4 °F 100% 30.05 in - Calm Calm - 0.00 in Rain Light Rain
5:37 AM 46.4 °F 46.4 °F 100% 30.05 in - Calm Calm - 0.00 in Rain Light Rain
6:23 AM 44.6 °F 44.6 °F 100% 30.05 in - Calm Calm - 0.00 in Rain Light Rain
6:56 AM 45.0 °F 45.0 °F 100% 30.09 in - Calm Calm - 0.01 in Rain Light Rain
7:56 AM 45.0 °F 45.0 °F 100% 30.12 in - Calm Calm - 0.00 in   Overcast
8:07 AM 44.6 °F 44.6 °F 100% 30.10 in - Calm Calm - N/A   Overcast
8:56 AM 45.9 °F 45.9 °F 100% 30.12 in - Calm Calm - 0.00 in Rain Light Rain
9:56 AM 45.9 °F 45.9 °F 100% 30.13 in - Calm Calm - 0.00 in Rain Light Rain
10:11 AM 46.4 °F 46.4 °F 100% 30.10 in - Calm Calm - 0.00 in   Overcast
10:30 AM 46.4 °F 46.4 °F 100% 30.10 in - Calm Calm - 0.00 in Rain Light Rain
10:56 AM 45.9 °F 45.9 °F 100% 30.12 in - Calm Calm - 0.00 in   Overcast
11:30 AM 46.4 °F 44.6 °F 93% 30.08 in - Calm Calm - N/A   Overcast
11:47 AM 46.4 °F 46.4 °F 100% 30.07 in - Calm Calm - N/A   Overcast
11:56 AM 46.9 °F 45.0 °F 93% 30.09 in - Calm Calm - N/A   Overcast
12:56 PM 47.8 °F 45.0 °F 90% 30.06 in - Calm Calm - N/A   Overcast
1:56 PM 46.9 °F 45.0 °F 93% 30.06 in - Calm Calm - N/A   Overcast
2:56 PM 46.9 °F 45.0 °F 93% 30.05 in - Calm Calm - N/A   Overcast
3:56 PM 46.9 °F 45.0 °F 93% 30.07 in - Calm Calm - N/A   Overcast
4:56 PM 46.9 °F 43.9 °F 89% 30.07 in - Calm Calm - N/A   Overcast
5:56 PM 46.9 °F 45.0 °F 93% 30.08 in - Calm Calm - N/A   Overcast
6:56 PM 46.9 °F 43.9 °F 89% 30.08 in - Calm Calm - N/A   Overcast
7:56 PM 46.9 °F 45.0 °F 93% 30.08 in - Calm Calm - N/A   Overcast
8:47 PM 46.4 °F 44.6 °F 93% 30.05 in - Calm Calm - N/A   Overcast
8:56 PM 46.9 °F 43.9 °F 89% 30.08 in - North 10.4 mph 15.0 mph N/A   Overcast
9:56 PM 46.9 °F 43.0 °F 86% 30.08 in - North 11.5 mph - N/A   Overcast
11:56 PM 46.9 °F 43.0 °F 86% 30.05 in - North 11.5 mph - N/A   Overcast